AAL1997 KSAN-KBHM

Flight info

Callsign AAL1997
Flight time 3h 7m
Altitude 35000
Route ZZOOO4 GBN DCT TUCUY DCT TCS DCT VERRT DCT HNKER DCT PRIZZ DCT FAYEE DCT JOEYE CENZA DCT
Aircraft B738/M-SDE2E3FGHIRWXY/LB1

Departure

Time 2026-04-23 20:03
Airport San Diego International Airport (KSAN)

Arrival

Time 2026-04-23 23:11
Airport Birmingham-Shuttlesworth International Airport (KBHM)
Time Latitude Longitude Altitude Speed Heading
2026-04-23 19:21 32.73317 -117.19682 25 ft 0 kts 141°
2026-04-23 19:40 32.73339 -117.19702 25 ft 2 kts 142°
2026-04-23 19:41 32.73352 -117.19714 25 ft 1 kts 154°
2026-04-23 19:41 32.73365 -117.19717 25 ft 1 kts 178°
2026-04-23 19:41 32.73378 -117.19718 25 ft 1 kts 182°
2026-04-23 19:41 32.73391 -117.19717 25 ft 1 kts 177°
2026-04-23 19:42 32.73403 -117.19720 25 ft 0 kts 155°
2026-04-23 19:42 32.73416 -117.19726 25 ft 1 kts 151°
2026-04-23 19:42 32.73427 -117.19735 25 ft 1 kts 143°
2026-04-23 19:42 32.73439 -117.19746 25 ft 2 kts 138°
2026-04-23 19:43 32.73438 -117.19743 25 ft 0 kts 111°
2026-04-23 19:43 32.73437 -117.19728 25 ft 1 kts 101°
2026-04-23 19:43 32.73437 -117.19726 25 ft 0 kts 104°
2026-04-23 19:43 32.73436 -117.19724 25 ft 0 kts 104°
2026-04-23 19:44 32.73436 -117.19723 25 ft 0 kts 104°
2026-04-23 19:44 32.73436 -117.19721 25 ft 0 kts 104°
2026-04-23 19:44 32.73435 -117.19719 25 ft 0 kts 104°
2026-04-23 19:44 32.73435 -117.19717 25 ft 0 kts 104°
2026-04-23 19:45 32.73434 -117.19716 25 ft 0 kts 104°
2026-04-23 19:45 32.73434 -117.19714 25 ft 0 kts 104°
2026-04-23 19:45 32.73434 -117.19713 25 ft 0 kts 104°
2026-04-23 19:45 32.73434 -117.19711 25 ft 0 kts 104°
2026-04-23 19:46 32.73433 -117.19710 25 ft 0 kts 104°
2026-04-23 19:46 32.73433 -117.19707 25 ft 0 kts 104°
2026-04-23 19:46 32.73432 -117.19706 25 ft 0 kts 104°
2026-04-23 19:46 32.73432 -117.19704 25 ft 0 kts 104°
2026-04-23 19:47 32.73432 -117.19703 25 ft 0 kts 104°
2026-04-23 19:47 32.73431 -117.19701 25 ft 0 kts 104°
2026-04-23 19:47 32.73431 -117.19700 25 ft 0 kts 104°
2026-04-23 19:47 32.73431 -117.19697 25 ft 1 kts 104°
2026-04-23 19:48 32.73424 -117.19668 25 ft 6 kts 106°
2026-04-23 19:48 32.73407 -117.19602 25 ft 10 kts 106°
2026-04-23 19:48 32.73384 -117.19505 25 ft 14 kts 106°
2026-04-23 19:48 32.73356 -117.19387 25 ft 15 kts 107°
2026-04-23 19:49 32.73325 -117.19264 25 ft 14 kts 105°
2026-04-23 19:49 32.73301 -117.19164 25 ft 10 kts 106°
2026-04-23 19:49 32.73285 -117.19097 25 ft 6 kts 105°
2026-04-23 19:49 32.73274 -117.19052 25 ft 4 kts 107°
2026-04-23 19:50 32.73268 -117.19028 25 ft 2 kts 107°
2026-04-23 19:50 32.73264 -117.19012 25 ft 1 kts 107°
2026-04-23 19:50 32.73261 -117.18999 25 ft 1 kts 107°
2026-04-23 19:50 32.73256 -117.18982 25 ft 2 kts 107°
2026-04-23 19:51 32.73251 -117.18961 25 ft 2 kts 106°
2026-04-23 19:51 32.73245 -117.18935 25 ft 3 kts 106°
2026-04-23 19:51 32.73238 -117.18906 25 ft 3 kts 105°
2026-04-23 19:51 32.73231 -117.18877 25 ft 3 kts 105°
2026-04-23 19:52 32.73225 -117.18847 25 ft 3 kts 105°
2026-04-23 19:52 32.73214 -117.18803 25 ft 7 kts 107°
2026-04-23 19:52 32.73198 -117.18734 25 ft 9 kts 105°
2026-04-23 19:52 32.73178 -117.18651 25 ft 11 kts 107°
2026-04-23 19:53 32.73154 -117.18555 25 ft 12 kts 107°
2026-04-23 19:53 32.73132 -117.18467 25 ft 9 kts 106°
2026-04-23 19:53 32.73118 -117.18410 25 ft 6 kts 106°
2026-04-23 19:53 32.73105 -117.18360 25 ft 6 kts 107°
2026-04-23 19:54 32.73092 -117.18310 25 ft 6 kts 108°
2026-04-23 19:54 32.73078 -117.18260 25 ft 6 kts 102°
2026-04-23 19:54 32.73062 -117.18179 25 ft 16 kts 105°
2026-04-23 19:54 32.73027 -117.18040 25 ft 18 kts 108°
2026-04-23 19:55 32.72992 -117.17887 25 ft 19 kts 107°
2026-04-23 19:55 32.72954 -117.17732 25 ft 18 kts 102°
2026-04-23 19:55 32.72954 -117.17683 25 ft 0 kts 76°
2026-04-23 20:00 32.72968 -117.17638 25 ft 10 kts 54°
2026-04-23 20:00 32.73041 -117.17673 25 ft 18 kts 292°
2026-04-23 20:01 32.73082 -117.17844 25 ft 24 kts 286°
2026-04-23 20:01 32.73135 -117.18059 25 ft 28 kts 287°
2026-04-23 20:01 32.73155 -117.18140 25 ft 0 kts 287°
2026-04-23 20:02 32.73167 -117.18189 25 ft 33 kts 286°
2026-04-23 20:02 32.73317 -117.18829 27 ft 124 kts 285°
2026-04-23 20:03 32.73598 -117.19965 344 ft 154 kts 285°
2026-04-23 20:03 32.73948 -117.21174 1209 ft 160 kts 287°
2026-04-23 20:03 32.74355 -117.22430 2051 ft 169 kts 289°
2026-04-23 20:03 32.74731 -117.23822 2405 ft 205 kts 276°
2026-04-23 20:04 32.75030 -117.25645 2848 ft 235 kts 281°
2026-04-23 20:04 32.75429 -117.27482 3839 ft 238 kts 281°
2026-04-23 20:04 32.75454 -117.29552 4229 ft 259 kts 256°
2026-04-23 20:04 32.74738 -117.31467 5188 ft 257 kts 234°
2026-04-23 20:05 32.73465 -117.32917 6017 ft 259 kts 212°
2026-04-23 20:05 32.71817 -117.33684 6842 ft 261 kts 191°
2026-04-23 20:05 32.70022 -117.33652 7648 ft 263 kts 169°
2026-04-23 20:05 32.68349 -117.32815 8429 ft 267 kts 148°
2026-04-23 20:06 32.67032 -117.31278 9189 ft 272 kts 128°
2026-04-23 20:06 32.66166 -117.29262 9960 ft 274 kts 117°
2026-04-23 20:06 32.65368 -117.27211 10401 ft 285 kts 120°
2026-04-23 20:06 32.64097 -117.25302 10400 ft 305 kts 139°
2026-04-23 20:07 32.62654 -117.23403 10560 ft 321 kts 124°
2026-04-23 20:07 32.61803 -117.20956 11113 ft 323 kts 107°
2026-04-23 20:07 32.61759 -117.20734 11154 ft 323 kts 106°
2026-04-23 20:07 32.61495 -117.19511 11381 ft 323 kts 108°
2026-04-23 20:08 32.60770 -117.16978 11810 ft 325 kts 111°
2026-04-23 20:08 32.59995 -117.14466 12242 ft 326 kts 112°
2026-04-23 20:08 32.59216 -117.11933 12619 ft 329 kts 111°
2026-04-23 20:08 32.58694 -117.09270 12922 ft 336 kts 97°
2026-04-23 20:09 32.58876 -117.06518 13275 ft 342 kts 81°
2026-04-23 20:09 32.59591 -117.03779 13592 ft 345 kts 78°
2026-04-23 20:09 32.60079 -117.01001 13855 ft 353 kts 82°
2026-04-23 20:09 32.60523 -116.98116 14961 ft 354 kts 83°
2026-04-23 20:10 32.60809 -116.96246 15683 ft 355 kts 83°
2026-04-23 20:10 32.61401 -116.92341 16865 ft 364 kts 83°
2026-04-23 20:10 32.61845 -116.89417 17726 ft 369 kts 84°
2026-04-23 20:10 32.62301 -116.86410 18556 ft 375 kts 84°
2026-04-23 20:11 32.62762 -116.83358 19371 ft 380 kts 84°
2026-04-23 20:11 32.63231 -116.80250 20127 ft 386 kts 85°
2026-04-23 20:11 32.63704 -116.77112 20845 ft 391 kts 85°
2026-04-23 20:11 32.64183 -116.73926 21468 ft 397 kts 85°
2026-04-23 20:12 32.64666 -116.70705 22089 ft 402 kts 85°
2026-04-23 20:12 32.65156 -116.67437 22690 ft 407 kts 85°
2026-04-23 20:12 32.65657 -116.64085 23259 ft 413 kts 85°
2026-04-23 20:12 32.66156 -116.60748 23822 ft 418 kts 86°
2026-04-23 20:13 32.66668 -116.57308 24379 ft 423 kts 86°
2026-04-23 20:13 32.67182 -116.53855 24891 ft 429 kts 86°
2026-04-23 20:13 32.67700 -116.50373 25446 ft 433 kts 86°
2026-04-23 20:13 32.68222 -116.46841 25916 ft 439 kts 86°
2026-04-23 20:14 32.68745 -116.43298 26415 ft 443 kts 86°
2026-04-23 20:14 32.69284 -116.39650 26854 ft 449 kts 86°
2026-04-23 20:14 32.69821 -116.35990 27190 ft 457 kts 86°
2026-04-23 20:14 32.70367 -116.32301 27801 ft 458 kts 87°
2026-04-23 20:15 32.70916 -116.28535 28202 ft 463 kts 86°
2026-04-23 20:15 32.71469 -116.24772 28635 ft 468 kts 86°
2026-04-23 20:15 32.72020 -116.20993 29204 ft 468 kts 87°
2026-04-23 20:15 32.72573 -116.17215 29784 ft 468 kts 87°
2026-04-23 20:16 32.73126 -116.13390 30180 ft 472 kts 87°
2026-04-23 20:16 32.73683 -116.09549 30701 ft 472 kts 87°
2026-04-23 20:16 32.74240 -116.05706 31171 ft 474 kts 87°
2026-04-23 20:16 32.74791 -116.01886 31642 ft 475 kts 87°
2026-04-23 20:17 32.75353 -115.97987 32083 ft 477 kts 87°
2026-04-23 20:17 32.75907 -115.94144 32590 ft 476 kts 87°
2026-04-23 20:17 32.76459 -115.90279 32909 ft 480 kts 87°
2026-04-23 20:17 32.77015 -115.86385 33324 ft 481 kts 86°
2026-04-23 20:18 32.77581 -115.82440 33803 ft 481 kts 86°
2026-04-23 20:18 32.78135 -115.78541 34149 ft 483 kts 86°
2026-04-23 20:18 32.78691 -115.74629 34590 ft 482 kts 86°
2026-04-23 20:18 32.79247 -115.70727 34928 ft 477 kts 86°
2026-04-23 20:19 32.79800 -115.66800 34969 ft 486 kts 86°
2026-04-23 20:19 32.80362 -115.62811 34990 ft 497 kts 86°
2026-04-23 20:19 32.80931 -115.58758 34995 ft 507 kts 86°
2026-04-23 20:20 32.82106 -115.50390 34980 ft 517 kts 86°
2026-04-23 20:20 32.83277 -115.42024 34969 ft 514 kts 86°
2026-04-23 20:21 32.84441 -115.33635 34978 ft 514 kts 86°
2026-04-23 20:21 32.85599 -115.25279 34972 ft 512 kts 87°
2026-04-23 20:22 32.86742 -115.16929 34983 ft 514 kts 86°
2026-04-23 20:22 32.87890 -115.08540 34985 ft 518 kts 86°
2026-04-23 20:23 32.89046 -115.00047 34986 ft 523 kts 86°
2026-04-23 20:23 32.90200 -114.91511 34986 ft 526 kts 86°
2026-04-23 20:24 32.91355 -114.82952 34980 ft 525 kts 86°
2026-04-23 20:24 32.92503 -114.74367 34977 ft 525 kts 86°
2026-04-23 20:25 32.93642 -114.65845 34976 ft 525 kts 86°
2026-04-23 20:25 32.94776 -114.57265 34969 ft 525 kts 86°
2026-04-23 20:26 32.95904 -114.48698 34964 ft 526 kts 86°
2026-04-23 20:26 32.97025 -114.40135 34967 ft 525 kts 86°
2026-04-23 20:27 32.98146 -114.31546 34956 ft 523 kts 86°
2026-04-23 20:27 32.99258 -114.22981 34960 ft 523 kts 86°
2026-04-23 20:28 33.00355 -114.14452 34958 ft 523 kts 86°
2026-04-23 20:28 33.01449 -114.05933 34960 ft 522 kts 86°
2026-04-23 20:29 33.02536 -113.97396 34959 ft 522 kts 86°
2026-04-23 20:29 33.03618 -113.88866 34961 ft 521 kts 86°
2026-04-23 20:30 33.04689 -113.80361 34962 ft 520 kts 86°
2026-04-23 20:30 33.06288 -113.67594 34964 ft 520 kts 86°
2026-04-23 20:31 33.07342 -113.59107 34966 ft 519 kts 85°
2026-04-23 20:31 33.08395 -113.50588 34967 ft 519 kts 85°
2026-04-23 20:32 33.09436 -113.42120 34967 ft 518 kts 85°
2026-04-23 20:32 33.10472 -113.33633 34953 ft 518 kts 86°
2026-04-23 20:33 33.11499 -113.25183 34946 ft 517 kts 86°
2026-04-23 20:33 33.12518 -113.16742 34948 ft 517 kts 86°
2026-04-23 20:34 33.13535 -113.08273 34949 ft 517 kts 86°
2026-04-23 20:34 33.14548 -112.99774 34951 ft 518 kts 85°
2026-04-23 20:35 33.15556 -112.91264 34954 ft 521 kts 85°
2026-04-23 20:35 33.16561 -112.82739 34956 ft 523 kts 84°
2026-04-23 20:36 33.17574 -112.74123 34957 ft 524 kts 84°
2026-04-23 20:36 33.18580 -112.65506 34958 ft 524 kts 84°
2026-04-23 20:37 33.19574 -112.56925 34961 ft 524 kts 84°
2026-04-23 20:37 33.20558 -112.48366 34964 ft 524 kts 84°
2026-04-23 20:38 33.21543 -112.39748 34966 ft 524 kts 84°
2026-04-23 20:38 33.22524 -112.31126 34956 ft 524 kts 85°
2026-04-23 20:39 33.23497 -112.22497 34953 ft 524 kts 85°
2026-04-23 20:39 33.24461 -112.13911 34944 ft 524 kts 85°
2026-04-23 20:40 33.25418 -112.05321 34938 ft 524 kts 85°
2026-04-23 20:40 33.26379 -111.96654 34945 ft 524 kts 85°
2026-04-23 20:41 33.27325 -111.88059 34954 ft 524 kts 85°
2026-04-23 20:41 33.28267 -111.79449 34964 ft 524 kts 85°
2026-04-23 20:42 33.29200 -111.70860 34972 ft 524 kts 85°
2026-04-23 20:42 33.30135 -111.62212 34979 ft 524 kts 85°
2026-04-23 20:43 33.31053 -111.53641 34982 ft 524 kts 85°
2026-04-23 20:43 33.31970 -111.45028 34984 ft 524 kts 85°
2026-04-23 20:44 33.32882 -111.36417 34987 ft 524 kts 85°
2026-04-23 20:44 33.33793 -111.27757 34979 ft 523 kts 85°
2026-04-23 20:45 33.34693 -111.19128 34979 ft 524 kts 85°
2026-04-23 20:45 33.35583 -111.10531 34978 ft 524 kts 85°
2026-04-23 20:46 33.36474 -111.01878 34978 ft 531 kts 85°
2026-04-23 20:46 33.37379 -110.93023 34983 ft 538 kts 85°
2026-04-23 20:47 33.38284 -110.84116 34987 ft 544 kts 85°
2026-04-23 20:47 33.39185 -110.75190 34981 ft 542 kts 85°
2026-04-23 20:48 33.40076 -110.66263 34989 ft 542 kts 85°
2026-04-23 20:48 33.40963 -110.57315 35005 ft 543 kts 85°
2026-04-23 20:49 33.41846 -110.48387 35035 ft 542 kts 85°
2026-04-23 20:49 33.42720 -110.39435 35075 ft 541 kts 85°
2026-04-23 20:50 33.43591 -110.30482 35043 ft 542 kts 86°
2026-04-23 20:50 33.44448 -110.21581 35009 ft 542 kts 86°
2026-04-23 20:51 33.45307 -110.12598 34987 ft 542 kts 86°
2026-04-23 20:51 33.46153 -110.03672 34995 ft 541 kts 86°
2026-04-23 20:52 33.46994 -109.94740 34999 ft 542 kts 86°
2026-04-23 20:52 33.47832 -109.85751 35003 ft 542 kts 86°
2026-04-23 20:53 33.48663 -109.76811 35015 ft 542 kts 86°
2026-04-23 20:53 33.49482 -109.67882 35022 ft 543 kts 86°
2026-04-23 20:54 33.50298 -109.58939 35028 ft 542 kts 86°
2026-04-23 20:54 33.51112 -109.49960 35038 ft 542 kts 86°
2026-04-23 20:55 33.51915 -109.41012 35043 ft 541 kts 86°
2026-04-23 20:55 33.52712 -109.32026 35057 ft 542 kts 86°
2026-04-23 20:56 33.53502 -109.23081 35076 ft 541 kts 86°
2026-04-23 20:56 33.54282 -109.14120 35085 ft 544 kts 86°
2026-04-23 20:57 33.55062 -109.05112 35091 ft 545 kts 85°
2026-04-23 20:57 33.55837 -108.96085 35094 ft 545 kts 84°
2026-04-23 20:58 33.56611 -108.87086 35092 ft 546 kts 85°
2026-04-23 20:58 33.57378 -108.78011 35094 ft 546 kts 85°
2026-04-23 20:59 33.58133 -108.69025 35096 ft 546 kts 85°
2026-04-23 20:59 33.58883 -108.59993 35097 ft 546 kts 85°
2026-04-23 21:00 33.59626 -108.50940 35095 ft 546 kts 84°
2026-04-23 21:00 33.60364 -108.41909 35093 ft 546 kts 85°
2026-04-23 21:01 33.61098 -108.32853 35064 ft 546 kts 85°
2026-04-23 21:01 33.61823 -108.23812 35030 ft 546 kts 85°
2026-04-23 21:02 33.62540 -108.14755 34997 ft 546 kts 85°
2026-04-23 21:02 33.63245 -108.05738 34959 ft 546 kts 85°
2026-04-23 21:03 33.63958 -107.96629 34930 ft 547 kts 85°
2026-04-23 21:03 33.64651 -107.87633 34924 ft 547 kts 85°
2026-04-23 21:04 33.65343 -107.78570 34935 ft 547 kts 85°
2026-04-23 21:04 33.66034 -107.69451 34932 ft 547 kts 85°
2026-04-23 21:05 33.66708 -107.60445 34932 ft 547 kts 85°
2026-04-23 21:05 33.67383 -107.51340 34931 ft 546 kts 85°
2026-04-23 21:06 33.68047 -107.42301 34937 ft 546 kts 85°
2026-04-23 21:06 33.68709 -107.33221 34931 ft 547 kts 86°
2026-04-23 21:07 33.69360 -107.24163 34919 ft 547 kts 86°
2026-04-23 21:07 33.70009 -107.15057 34917 ft 546 kts 86°
2026-04-23 21:08 33.70643 -107.06025 34919 ft 546 kts 86°
2026-04-23 21:08 33.71272 -106.96973 34918 ft 547 kts 85°
2026-04-23 21:09 33.71899 -106.87841 34918 ft 547 kts 85°
2026-04-23 21:09 33.72517 -106.78798 34920 ft 546 kts 84°
2026-04-23 21:10 33.73136 -106.69712 34921 ft 546 kts 84°
2026-04-23 21:10 33.73737 -106.60685 34923 ft 546 kts 84°
2026-04-23 21:11 33.74338 -106.51586 34923 ft 546 kts 84°
2026-04-23 21:11 33.74928 -106.42532 34930 ft 546 kts 84°
2026-04-23 21:12 33.75518 -106.33443 34924 ft 546 kts 85°
2026-04-23 21:12 33.76092 -106.24393 34932 ft 545 kts 85°
2026-04-23 21:13 33.76660 -106.15382 34967 ft 545 kts 85°
2026-04-23 21:13 33.77228 -106.06268 35004 ft 544 kts 85°
2026-04-23 21:14 33.77786 -105.97244 35012 ft 545 kts 85°
2026-04-23 21:14 33.78336 -105.88192 35012 ft 544 kts 85°
2026-04-23 21:15 33.78879 -105.79176 35012 ft 544 kts 85°
2026-04-23 21:15 33.79416 -105.70081 35014 ft 544 kts 85°
2026-04-23 21:16 33.79948 -105.61013 35016 ft 545 kts 85°
2026-04-23 21:16 33.80473 -105.51959 35019 ft 544 kts 85°
2026-04-23 21:17 33.80992 -105.42909 35020 ft 545 kts 85°
2026-04-23 21:17 33.81502 -105.33832 35016 ft 544 kts 85°
2026-04-23 21:18 33.82008 -105.24763 35003 ft 545 kts 85°
2026-04-23 21:18 33.82505 -105.15737 35004 ft 544 kts 85°
2026-04-23 21:19 33.82994 -105.06664 34977 ft 546 kts 85°
2026-04-23 21:19 33.83481 -104.97505 34904 ft 550 kts 84°
2026-04-23 21:20 33.83964 -104.88350 34825 ft 552 kts 84°
2026-04-23 21:20 33.84445 -104.79175 34801 ft 552 kts 83°
2026-04-23 21:21 33.84915 -104.69963 34803 ft 552 kts 83°
2026-04-23 21:21 33.85378 -104.60819 34804 ft 552 kts 83°
2026-04-23 21:22 33.85836 -104.51585 34805 ft 552 kts 83°
2026-04-23 21:22 33.86286 -104.42419 34807 ft 552 kts 83°
2026-04-23 21:23 33.86731 -104.33205 34801 ft 553 kts 84°
2026-04-23 21:23 33.87168 -104.24012 34790 ft 553 kts 84°
2026-04-23 21:24 33.87598 -104.14793 34794 ft 553 kts 84°
2026-04-23 21:24 33.88025 -104.05544 34799 ft 552 kts 84°
2026-04-23 21:25 33.88438 -103.96392 34807 ft 553 kts 84°
2026-04-23 21:25 33.88849 -103.87156 34813 ft 553 kts 84°
2026-04-23 21:26 33.89250 -103.77945 34817 ft 552 kts 84°
2026-04-23 21:26 33.89646 -103.68758 34820 ft 552 kts 84°
2026-04-23 21:27 33.90035 -103.59544 34823 ft 552 kts 84°
2026-04-23 21:27 33.90418 -103.50319 34824 ft 552 kts 84°
2026-04-23 21:28 33.90791 -103.41136 34827 ft 552 kts 84°
2026-04-23 21:28 33.91163 -103.31911 34810 ft 552 kts 85°
2026-04-23 21:29 33.91523 -103.22744 34808 ft 552 kts 85°
2026-04-23 21:29 33.91877 -103.13486 34817 ft 551 kts 85°
2026-04-23 21:30 33.92220 -103.04348 34827 ft 546 kts 84°
2026-04-23 21:30 33.92558 -102.95263 34840 ft 543 kts 84°
2026-04-23 21:31 33.92887 -102.86220 34837 ft 543 kts 84°
2026-04-23 21:31 33.93209 -102.77185 34828 ft 543 kts 84°
2026-04-23 21:32 33.93525 -102.68112 34822 ft 543 kts 84°
2026-04-23 21:32 33.93834 -102.59048 34823 ft 543 kts 84°
2026-04-23 21:33 33.94136 -102.49959 34823 ft 543 kts 84°
2026-04-23 21:33 33.94432 -102.40887 34823 ft 544 kts 84°
2026-04-23 21:34 33.94722 -102.31842 34807 ft 544 kts 85°
2026-04-23 21:34 33.95005 -102.22722 34804 ft 544 kts 85°
2026-04-23 21:35 33.95280 -102.13692 34798 ft 544 kts 85°
2026-04-23 21:35 33.95549 -102.04595 34792 ft 544 kts 85°
2026-04-23 21:36 33.95942 -101.90944 34788 ft 544 kts 85°
2026-04-23 21:37 33.96193 -101.81921 34789 ft 544 kts 85°
2026-04-23 21:37 33.96439 -101.72822 34791 ft 544 kts 85°
2026-04-23 21:38 33.96680 -101.63706 34793 ft 544 kts 85°
2026-04-23 21:38 33.96912 -101.54627 34794 ft 544 kts 85°
2026-04-23 21:39 33.97138 -101.45546 34796 ft 544 kts 85°
2026-04-23 21:39 33.97358 -101.36474 34798 ft 544 kts 85°
2026-04-23 21:40 33.97571 -101.27385 34784 ft 544 kts 85°
2026-04-23 21:40 33.97777 -101.18278 34783 ft 544 kts 85°
2026-04-23 21:41 33.97973 -101.09197 34776 ft 544 kts 85°
2026-04-23 21:41 33.98167 -101.00086 34772 ft 543 kts 85°
2026-04-23 21:42 33.98351 -100.91035 34745 ft 540 kts 85°
2026-04-23 21:42 33.98528 -100.82090 34720 ft 536 kts 84°
2026-04-23 21:43 33.98700 -100.73154 34708 ft 535 kts 84°
2026-04-23 21:43 33.98865 -100.64159 34709 ft 536 kts 84°
2026-04-23 21:44 33.99022 -100.55209 34709 ft 536 kts 84°
2026-04-23 21:44 33.99173 -100.46268 34711 ft 536 kts 84°
2026-04-23 21:45 33.99317 -100.37317 34713 ft 536 kts 84°
2026-04-23 21:45 33.99456 -100.28367 34700 ft 536 kts 85°
2026-04-23 21:46 33.99587 -100.19373 34700 ft 536 kts 85°
2026-04-23 21:46 33.99711 -100.10462 34700 ft 536 kts 85°
2026-04-23 21:47 33.99830 -100.01506 34702 ft 536 kts 85°
2026-04-23 21:47 33.99942 -99.92499 34703 ft 537 kts 85°
2026-04-23 21:48 34.00048 -99.83522 34705 ft 537 kts 85°
2026-04-23 21:48 34.00147 -99.74557 34692 ft 537 kts 85°
2026-04-23 21:49 34.00239 -99.65608 34674 ft 537 kts 85°
2026-04-23 21:49 34.00325 -99.56638 34660 ft 537 kts 85°
2026-04-23 21:50 34.00404 -99.47698 34666 ft 537 kts 85°
2026-04-23 21:50 34.00476 -99.38718 34673 ft 537 kts 85°
2026-04-23 21:51 34.00544 -99.29715 34660 ft 537 kts 85°
2026-04-23 21:51 34.00603 -99.20779 34663 ft 537 kts 85°
2026-04-23 21:52 34.00657 -99.11790 34664 ft 537 kts 85°
2026-04-23 21:52 34.00706 -99.02863 34672 ft 532 kts 86°
2026-04-23 21:53 34.00746 -98.93962 34686 ft 526 kts 86°
2026-04-23 21:53 34.00778 -98.85262 34697 ft 522 kts 86°
2026-04-23 21:54 34.00804 -98.76517 34709 ft 523 kts 86°
2026-04-23 21:54 34.00824 -98.67783 34718 ft 523 kts 86°
2026-04-23 21:55 34.00839 -98.59012 34726 ft 523 kts 86°
2026-04-23 21:55 34.00847 -98.50294 34727 ft 523 kts 86°
2026-04-23 21:56 34.00847 -98.41528 34729 ft 522 kts 86°
2026-04-23 21:56 34.00846 -98.32783 34721 ft 522 kts 87°
2026-04-23 21:57 34.00836 -98.24028 34717 ft 523 kts 87°
2026-04-23 21:57 34.00820 -98.15340 34718 ft 523 kts 87°
2026-04-23 21:58 34.00797 -98.06591 34728 ft 522 kts 87°
2026-04-23 21:58 34.00769 -97.97847 34739 ft 522 kts 87°
2026-04-23 21:59 34.00735 -97.89122 34754 ft 523 kts 87°
2026-04-23 21:59 34.00692 -97.80409 34770 ft 521 kts 87°
2026-04-23 22:00 34.00619 -97.67297 34783 ft 522 kts 87°
2026-04-23 22:00 34.00563 -97.58527 34794 ft 522 kts 87°
2026-04-23 22:01 34.00500 -97.49801 34803 ft 522 kts 87°
2026-04-23 22:01 34.00431 -97.41082 34810 ft 522 kts 87°
2026-04-23 22:02 34.00357 -97.32356 34803 ft 523 kts 88°
2026-04-23 22:02 34.00323 -97.28024 35049 ft 510 kts 88°
2026-04-23 22:02 34.00283 -97.23754 34848 ft 519 kts 88°
2026-04-23 22:03 34.00193 -97.15002 34796 ft 524 kts 88°
2026-04-23 22:03 34.00100 -97.06300 34808 ft 517 kts 89°
2026-04-23 22:04 34.00003 -96.97734 34814 ft 513 kts 89°
2026-04-23 22:04 33.99897 -96.89162 34822 ft 512 kts 89°
2026-04-23 22:05 33.99786 -96.80570 34832 ft 513 kts 89°
2026-04-23 22:05 33.99671 -96.71998 34842 ft 513 kts 89°
2026-04-23 22:06 33.99549 -96.63451 34846 ft 513 kts 89°
2026-04-23 22:06 33.99422 -96.54884 34847 ft 513 kts 89°
2026-04-23 22:07 33.99289 -96.46351 34848 ft 513 kts 89°
2026-04-23 22:07 33.99150 -96.37763 34849 ft 513 kts 89°
2026-04-23 22:08 33.99005 -96.29169 34840 ft 513 kts 90°
2026-04-23 22:08 33.98854 -96.20638 34840 ft 513 kts 90°
2026-04-23 22:09 33.98697 -96.12033 34841 ft 513 kts 90°
2026-04-23 22:09 33.98534 -96.03462 34842 ft 513 kts 90°
2026-04-23 22:10 33.98366 -95.94946 34845 ft 513 kts 90°
2026-04-23 22:10 33.98191 -95.86350 34852 ft 513 kts 90°
2026-04-23 22:11 33.98008 -95.77782 34844 ft 512 kts 90°
2026-04-23 22:11 33.97823 -95.69212 34846 ft 512 kts 90°
2026-04-23 22:12 33.97630 -95.60669 34847 ft 512 kts 90°
2026-04-23 22:12 33.97431 -95.52082 34847 ft 512 kts 90°
2026-04-23 22:13 33.97228 -95.43568 34848 ft 512 kts 90°
2026-04-23 22:13 33.97018 -95.35004 34849 ft 512 kts 90°
2026-04-23 22:14 33.96801 -95.26419 34840 ft 512 kts 90°
2026-04-23 22:14 33.96579 -95.17860 34844 ft 513 kts 90°
2026-04-23 22:15 33.96351 -95.09284 34850 ft 513 kts 90°
2026-04-23 22:15 33.96116 -95.00723 34855 ft 513 kts 90°
2026-04-23 22:16 33.95874 -94.92179 34858 ft 515 kts 90°
2026-04-23 22:16 33.95626 -94.83521 34861 ft 517 kts 90°
2026-04-23 22:17 33.95373 -94.74888 34862 ft 518 kts 89°
2026-04-23 22:17 33.95115 -94.66289 34864 ft 518 kts 89°
2026-04-23 22:18 33.94848 -94.57626 34865 ft 517 kts 90°
2026-04-23 22:18 33.94574 -94.48968 34866 ft 517 kts 89°
2026-04-23 22:19 33.94297 -94.40331 34867 ft 518 kts 89°
2026-04-23 22:19 33.94014 -94.31739 34856 ft 518 kts 90°
2026-04-23 22:20 33.93722 -94.23080 34856 ft 518 kts 90°
2026-04-23 22:20 33.93426 -94.14448 34858 ft 518 kts 90°
2026-04-23 22:21 33.93124 -94.05810 34860 ft 518 kts 90°
2026-04-23 22:21 33.92815 -93.97181 34872 ft 518 kts 90°
2026-04-23 22:22 33.92500 -93.88523 34887 ft 518 kts 90°
2026-04-23 22:22 33.92177 -93.79866 34898 ft 518 kts 90°
2026-04-23 22:23 33.91851 -93.71254 34900 ft 518 kts 90°
2026-04-23 22:23 33.91517 -93.62568 34901 ft 518 kts 90°
2026-04-23 22:24 33.91180 -93.53973 34905 ft 518 kts 90°
2026-04-23 22:24 33.90836 -93.45352 34913 ft 518 kts 90°
2026-04-23 22:25 33.90485 -93.36716 34919 ft 518 kts 90°
2026-04-23 22:25 33.90126 -93.28021 34911 ft 518 kts 91°
2026-04-23 22:26 33.89761 -93.19411 34906 ft 518 kts 91°
2026-04-23 22:26 33.89394 -93.10785 34905 ft 518 kts 91°
2026-04-23 22:27 33.89017 -93.02125 34906 ft 518 kts 90°
2026-04-23 22:27 33.88636 -92.93497 34906 ft 519 kts 90°
2026-04-23 22:28 33.88248 -92.84850 34907 ft 520 kts 90°
2026-04-23 22:28 33.87855 -92.76199 34907 ft 520 kts 90°
2026-04-23 22:29 33.87454 -92.67529 34909 ft 520 kts 90°
2026-04-23 22:29 33.87047 -92.58855 34910 ft 520 kts 90°
2026-04-23 22:30 33.86635 -92.50211 34912 ft 520 kts 90°
2026-04-23 22:30 33.86212 -92.41517 34912 ft 520 kts 90°
2026-04-23 22:31 33.85791 -92.32883 34909 ft 520 kts 91°
2026-04-23 22:31 33.85360 -92.24239 34912 ft 520 kts 91°
2026-04-23 22:32 33.84922 -92.15543 34920 ft 520 kts 91°
2026-04-23 22:32 33.84480 -92.06911 34923 ft 520 kts 91°
2026-04-23 22:33 33.84029 -91.98238 34924 ft 520 kts 91°
2026-04-23 22:33 33.83571 -91.89523 34926 ft 520 kts 91°
2026-04-23 22:34 33.83338 -91.85252 34901 ft 508 kts 91°
2026-04-23 22:34 33.83119 -91.81124 34893 ft 487 kts 91°
2026-04-23 22:34 33.82684 -91.72993 34945 ft 500 kts 91°
2026-04-23 22:35 33.82452 -91.68742 34947 ft 512 kts 91°
2026-04-23 22:35 33.82408 -91.67931 34951 ft 514 kts 91°
2026-04-23 22:35 33.82003 -91.60527 34931 ft 523 kts 91°
2026-04-23 22:36 33.81520 -91.51889 34927 ft 520 kts 91°
2026-04-23 22:36 33.81032 -91.43244 34931 ft 520 kts 91°
2026-04-23 22:37 33.80537 -91.34573 34934 ft 520 kts 92°
2026-04-23 22:37 33.80036 -91.25902 34926 ft 520 kts 92°
2026-04-23 22:38 33.79533 -91.17263 34928 ft 521 kts 92°
2026-04-23 22:38 33.79015 -91.08563 34928 ft 522 kts 91°
2026-04-23 22:39 33.78495 -90.99890 34926 ft 524 kts 91°
2026-04-23 22:39 33.77969 -90.91173 34925 ft 524 kts 91°
2026-04-23 22:40 33.77436 -90.82488 34926 ft 523 kts 91°
2026-04-23 22:41 33.76624 -90.69408 34930 ft 525 kts 91°
2026-04-23 22:41 33.76345 -90.65048 34726 ft 528 kts 91°
2026-04-23 22:41 33.76069 -90.60660 33987 ft 533 kts 91°
2026-04-23 22:41 33.75787 -90.56193 33245 ft 531 kts 91°
2026-04-23 22:42 33.75505 -90.51800 32503 ft 528 kts 91°
2026-04-23 22:42 33.75226 -90.47450 31655 ft 528 kts 91°
2026-04-23 22:42 33.74947 -90.43111 30805 ft 526 kts 91°
2026-04-23 22:42 33.74660 -90.38703 29942 ft 526 kts 91°
2026-04-23 22:43 33.74374 -90.34356 29157 ft 525 kts 92°
2026-04-23 22:43 33.74086 -90.29990 28389 ft 527 kts 92°
2026-04-23 22:43 33.73798 -90.25617 27639 ft 529 kts 92°
2026-04-23 22:43 33.73506 -90.21220 26883 ft 531 kts 92°
2026-04-23 22:44 33.73211 -90.16812 26150 ft 532 kts 92°
2026-04-23 22:44 33.72915 -90.12405 25387 ft 533 kts 92°
2026-04-23 22:44 33.72613 -90.07944 24644 ft 533 kts 92°
2026-04-23 22:44 33.72316 -90.03561 24000 ft 525 kts 92°
2026-04-23 22:45 33.72022 -89.99309 23967 ft 500 kts 92°
2026-04-23 22:45 33.71743 -89.95254 23927 ft 477 kts 92°
2026-04-23 22:45 33.71473 -89.91333 23906 ft 465 kts 92°
2026-04-23 22:45 33.71209 -89.87496 23937 ft 469 kts 92°
2026-04-23 22:46 33.70934 -89.83540 23967 ft 476 kts 92°
2026-04-23 22:46 33.70658 -89.79591 23966 ft 477 kts 92°
2026-04-23 22:46 33.70381 -89.75645 23960 ft 474 kts 92°
2026-04-23 22:46 33.70106 -89.71773 23896 ft 455 kts 92°
2026-04-23 22:47 33.69844 -89.68082 23870 ft 436 kts 92°
2026-04-23 22:47 33.69592 -89.64553 23868 ft 417 kts 92°
2026-04-23 22:47 33.69350 -89.61168 23879 ft 401 kts 92°
2026-04-23 22:47 33.69115 -89.57878 23924 ft 398 kts 92°
2026-04-23 22:48 33.68877 -89.54543 23987 ft 406 kts 92°
2026-04-23 22:48 33.68634 -89.51159 23982 ft 410 kts 92°
2026-04-23 22:48 33.68383 -89.47720 23980 ft 409 kts 92°
2026-04-23 22:48 33.68136 -89.44334 23979 ft 408 kts 92°
2026-04-23 22:49 33.67891 -89.40977 23980 ft 408 kts 92°
2026-04-23 22:49 33.67644 -89.37601 23979 ft 408 kts 92°
2026-04-23 22:49 33.67394 -89.34210 23976 ft 408 kts 92°
2026-04-23 22:49 33.67142 -89.30799 23969 ft 408 kts 92°
2026-04-23 22:50 33.66892 -89.27424 23968 ft 408 kts 92°
2026-04-23 22:50 33.66636 -89.24027 23969 ft 408 kts 92°
2026-04-23 22:50 33.66385 -89.20650 23969 ft 408 kts 92°
2026-04-23 22:50 33.66132 -89.17271 23969 ft 408 kts 92°
2026-04-23 22:51 33.65878 -89.13897 23970 ft 408 kts 92°
2026-04-23 22:51 33.65621 -89.10500 23970 ft 408 kts 92°
2026-04-23 22:51 33.65363 -89.07109 23971 ft 408 kts 92°
2026-04-23 22:51 33.65107 -89.03718 23970 ft 408 kts 92°
2026-04-23 22:52 33.64846 -89.00319 23972 ft 408 kts 92°
2026-04-23 22:52 33.64588 -88.96937 23970 ft 408 kts 93°
2026-04-23 22:52 33.64331 -88.93591 23968 ft 408 kts 93°
2026-04-23 22:52 33.64068 -88.90202 23970 ft 408 kts 93°
2026-04-23 22:53 33.63806 -88.86808 23969 ft 408 kts 93°
2026-04-23 22:53 33.63541 -88.83419 23977 ft 408 kts 93°
2026-04-23 22:53 33.63277 -88.80038 23975 ft 408 kts 93°
2026-04-23 22:53 33.63015 -88.76676 23971 ft 408 kts 93°
2026-04-23 22:54 33.62744 -88.73257 23976 ft 408 kts 93°
2026-04-23 22:54 33.62481 -88.69918 23968 ft 408 kts 93°
2026-04-23 22:54 33.62212 -88.66535 23971 ft 408 kts 93°
2026-04-23 22:54 33.61940 -88.63117 23972 ft 408 kts 93°
2026-04-23 22:55 33.61675 -88.59771 23966 ft 408 kts 93°
2026-04-23 22:55 33.61404 -88.56391 23969 ft 408 kts 93°
2026-04-23 22:55 33.61129 -88.52969 23964 ft 408 kts 93°
2026-04-23 22:55 33.60860 -88.49620 23972 ft 408 kts 93°
2026-04-23 22:56 33.60586 -88.46249 23968 ft 408 kts 93°
2026-04-23 22:56 33.60310 -88.42858 23964 ft 408 kts 93°
2026-04-23 22:56 33.60034 -88.39460 23965 ft 408 kts 93°
2026-04-23 22:56 33.59760 -88.36080 23973 ft 408 kts 93°
2026-04-23 22:57 33.59483 -88.32707 23958 ft 408 kts 94°
2026-04-23 22:57 33.59203 -88.29324 23961 ft 408 kts 94°
2026-04-23 22:57 33.58927 -88.25951 23962 ft 408 kts 94°
2026-04-23 22:57 33.58647 -88.22572 23958 ft 408 kts 94°
2026-04-23 22:58 33.58364 -88.19188 23960 ft 408 kts 94°
2026-04-23 22:58 33.58084 -88.15803 23960 ft 408 kts 94°
2026-04-23 22:58 33.57802 -88.12460 23959 ft 408 kts 94°
2026-04-23 22:58 33.57519 -88.09072 23959 ft 408 kts 94°
2026-04-23 22:59 33.57235 -88.05695 23967 ft 408 kts 94°
2026-04-23 22:59 33.56951 -88.02319 23969 ft 408 kts 94°
2026-04-23 22:59 33.56662 -87.98933 23979 ft 408 kts 94°
2026-04-23 22:59 33.56374 -87.95529 23993 ft 408 kts 94°
2026-04-23 23:00 33.56088 -87.92172 24198 ft 406 kts 94°
2026-04-23 23:00 33.55797 -87.88767 23395 ft 422 kts 94°
2026-04-23 23:00 33.55500 -87.85335 22482 ft 411 kts 94°
2026-04-23 23:00 33.55210 -87.81955 21504 ft 402 kts 94°
2026-04-23 23:01 33.54928 -87.78688 20568 ft 393 kts 94°
2026-04-23 23:01 33.54649 -87.75468 19633 ft 385 kts 94°
2026-04-23 23:01 33.54375 -87.72323 18717 ft 378 kts 94°
2026-04-23 23:01 33.54106 -87.69250 17801 ft 371 kts 94°
2026-04-23 23:02 33.53844 -87.66239 16892 ft 365 kts 94°
2026-04-23 23:02 33.53580 -87.63225 15977 ft 359 kts 94°
2026-04-23 23:02 33.53325 -87.60317 15085 ft 354 kts 94°
2026-04-23 23:02 33.53069 -87.57416 14185 ft 348 kts 94°
2026-04-23 23:03 33.52818 -87.54570 13291 ft 343 kts 94°
2026-04-23 23:03 33.52568 -87.51765 12407 ft 338 kts 94°
2026-04-23 23:03 33.52320 -87.48982 11529 ft 333 kts 94°
2026-04-23 23:03 33.52079 -87.46319 11055 ft 315 kts 93°
2026-04-23 23:04 33.51848 -87.43722 11076 ft 314 kts 93°
2026-04-23 23:04 33.51614 -87.41084 11083 ft 321 kts 93°
2026-04-23 23:04 33.51374 -87.38403 11081 ft 322 kts 93°
2026-04-23 23:04 33.51136 -87.35763 11081 ft 322 kts 93°
2026-04-23 23:05 33.50893 -87.33062 11078 ft 322 kts 94°
2026-04-23 23:05 33.50666 -87.30370 11089 ft 329 kts 97°
2026-04-23 23:05 33.50405 -87.27640 11108 ft 331 kts 96°
2026-04-23 23:05 33.50155 -87.24906 11080 ft 327 kts 96°
2026-04-23 23:06 33.49912 -87.22237 11082 ft 326 kts 96°
2026-04-23 23:06 33.49663 -87.19513 11087 ft 326 kts 96°
2026-04-23 23:06 33.49416 -87.16822 11088 ft 326 kts 96°
2026-04-23 23:06 33.49169 -87.14124 11089 ft 326 kts 96°
2026-04-23 23:07 33.48922 -87.11426 11090 ft 326 kts 96°
2026-04-23 23:07 33.48673 -87.08719 11090 ft 326 kts 96°
2026-04-23 23:07 33.48423 -87.06022 11091 ft 326 kts 96°
2026-04-23 23:07 33.48174 -87.03323 11091 ft 327 kts 96°
2026-04-23 23:08 33.47924 -87.00637 11091 ft 327 kts 96°
2026-04-23 23:08 33.47673 -86.97938 11087 ft 327 kts 96°
2026-04-23 23:08 33.47422 -86.95219 10321 ft 331 kts 97°
2026-04-23 23:08 33.47300 -86.92509 9410 ft 328 kts 86°
2026-04-23 23:09 33.47809 -86.89901 8487 ft 324 kts 67°
2026-04-23 23:09 33.48931 -86.87596 7281 ft 328 kts 50°
2026-04-23 23:09 33.50473 -86.85587 6074 ft 328 kts 48°
2026-04-23 23:09 33.51939 -86.83543 4433 ft 341 kts 50°
2026-04-23 23:10 33.53340 -86.81301 2233 ft 355 kts 60°
2026-04-23 23:10 33.54522 -86.78970 1210 ft 304 kts 61°
2026-04-23 23:10 33.55539 -86.77068 671 ft 238 kts 56°
2026-04-23 23:10 33.56321 -86.75700 620 ft 163 kts 57°
2026-04-23 23:11 33.56701 -86.75028 629 ft 19 kts 55°